Location: Laterina
(43.5167°N, 11.7167°E)
Time: 16:40:56
(UTC+00:00)

Cosmos 1300 Rocket - Pass Details

Date: 24 September 2020
Orbit: 601 x 627 km, 82.5° (Epoch: 26 October)

Event Time Altitude Azimuth Distance (km) Brightness Sun altitude
Rises 18:12:04 0° 192° (SSW) 2,881 7.0 -12.7°
Reaches altitude 10° 18:14:17 10° 195° (SSW) 1,984 6.2 -13.1°
Maximum altitude 18:18:40 71° 279° (W) 664 3.9 -13.9°
Drops below altitude 10° 18:23:07 10° 4° (N) 2,010 6.3 -14.7°
Sets 18:25:23 0° 7° (N) 2,923 7.1 -15.1°
